Hourly Weather Rus'ki Tyshky

Today, 15 April, Thursday

Time Temperature Precipitation Wind Pressure Humidity
00:00 +10°C° 0 mm 2 mps 749 mmHg 87%
01:00 +9°C° 0 mm 2 mps 749 mmHg 87%
02:00 +9°C° 0 mm 2 mps 750 mmHg 87%
03:00 +8°C° 0 mm 2 mps 750 mmHg 88%
04:00 +8°C° 0 mm 2 mps 750 mmHg 89%
05:00 +7°C° 0 mm 2 mps 750 mmHg 90%
06:00 +9°C° 0 mm 3 mps 750 mmHg 82%
07:00 +10°C° 0 mm 3 mps 750 mmHg 75%
08:00 +11°C° 0 mm 4 mps 750 mmHg 68%
09:00 +11°C° 0 mm 4 mps 750 mmHg 66%
10:00 +12°C° 0 mm 4 mps 750 mmHg 64%
11:00 +13°C° 0 mm 5 mps 749 mmHg 62%
12:00 +13°C° 0 mm 5 mps 749 mmHg 60%
13:00 +14°C° 0 mm 4 mps 749 mmHg 58%
14:00 +14°C° 0 mm 4 mps 749 mmHg 57%
15:00 +13°C° 0.8 mm 5 mps 749 mmHg 64%
16:00 +12°C° 0.8 mm 5 mps 749 mmHg 71%
17:00 +12°C° 0.8 mm 5 mps 748 mmHg 78%
18:00 +11°C° 0.5 mm 4 mps 749 mmHg 80%
19:00 +10°C° 0.5 mm 3 mps 749 mmHg 82%
20:00 +9°C° 0.5 mm 2 mps 749 mmHg 84%
21:00 +9°C° 0 mm 2 mps 749 mmHg 85%
22:00 +9°C° 0 mm 2 mps 749 mmHg 86%
23:00 +8°C° 0 mm 2 mps 749 mmHg 87%

Tomorrow, 16 April, Friday

Time Temperature Precipitation Wind Pressure Humidity
00:00 +8°C° 0 mm 2 mps 749 mmHg 88%
01:00 +7°C° 0 mm 3 mps 749 mmHg 88%
02:00 +7°C° 0 mm 3 mps 749 mmHg 89%
03:00 +7°C° 0 mm 3 mps 749 mmHg 90%
04:00 +5°C° 0 mm 3 mps 749 mmHg 92%
05:00 +5°C° 0 mm 3 mps 750 mmHg 94%
06:00 +7°C° 0 mm 3 mps 750 mmHg 88%
07:00 +7°C° 0 mm 4 mps 750 mmHg 83%
08:00 +7°C° 0 mm 5 mps 750 mmHg 78%
09:00 +8°C° 0 mm 5 mps 751 mmHg 74%
10:00 +9°C° 0 mm 5 mps 751 mmHg 70%
11:00 +10°C° 0 mm 5 mps 751 mmHg 65%
12:00 +10°C° 0.1 mm 5 mps 751 mmHg 65%
13:00 +10°C° 0.1 mm 5 mps 751 mmHg 65%
14:00 +10°C° 0.1 mm 5 mps 751 mmHg 65%
15:00 +11°C° 0.1 mm 4 mps 751 mmHg 67%
16:00 +10°C° 0.1 mm 4 mps 751 mmHg 69%
17:00 +10°C° 0.1 mm 3 mps 751 mmHg 71%
18:00 +9°C° 0.1 mm 3 mps 751 mmHg 75%
19:00 +9°C° 0.1 mm 2 mps 751 mmHg 79%
20:00 +9°C° 0.1 mm 1 mps 751 mmHg 84%
21:00 +9°C° 0.1 mm 1 mps 752 mmHg 85%
22:00 +8°C° 0.1 mm 2 mps 752 mmHg 87%
23:00 +8°C° 0.1 mm 2 mps 752 mmHg 88%

Day after tomorrow, 17 April, Saturday

Time Temperature Precipitation Wind Pressure Humidity
00:00 +7°C° 0.6 mm 2 mps 752 mmHg 88%
01:00 +7°C° 0.6 mm 2 mps 752 mmHg 88%
02:00 +7°C° 0.6 mm 2 mps 752 mmHg 88%
03:00 +7°C° 0.2 mm 2 mps 752 mmHg 89%
04:00 +7°C° 0.2 mm 2 mps 753 mmHg 89%
05:00 +6°C° 0.2 mm 2 mps 753 mmHg 89%
06:00 +7°C° 0 mm 2 mps 753 mmHg 86%
07:00 +7°C° 0 mm 2 mps 753 mmHg 83%
08:00 +8°C° 0 mm 2 mps 754 mmHg 80%
09:00 +8°C° 0 mm 3 mps 754 mmHg 78%
10:00 +9°C° 0 mm 3 mps 754 mmHg 75%
11:00 +9°C° 0 mm 3 mps 754 mmHg 72%
12:00 +10°C° 0 mm 3 mps 754 mmHg 68%
13:00 +11°C° 0 mm 3 mps 754 mmHg 64%
14:00 +12°C° 0 mm 3 mps 754 mmHg 59%
15:00 +11°C° 0 mm 3 mps 754 mmHg 60%
16:00 +11°C° 0 mm 3 mps 754 mmHg 61%
17:00 +11°C° 0 mm 3 mps 754 mmHg 62%
18:00 +11°C° 0 mm 3 mps 754 mmHg 64%
19:00 +10°C° 0 mm 3 mps 754 mmHg 66%
20:00 +9°C° 0 mm 2 mps 754 mmHg 69%
21:00 +9°C° 0 mm 3 mps 755 mmHg 72%
22:00 +9°C° 0 mm 3 mps 755 mmHg 75%
23:00 +8°C° 0 mm 3 mps 755 mmHg 79%

18 April, Sunday

Time Temperature Precipitation Wind Pressure Humidity
00:00 +8°C° 0 mm 3 mps 755 mmHg 82%
01:00 +7°C° 0 mm 3 mps 755 mmHg 85%
02:00 +6°C° 0 mm 2 mps 755 mmHg 89%
03:00 +6°C° 0 mm 2 mps 755 mmHg 90%
04:00 +6°C° 0 mm 2 mps 755 mmHg 90%
05:00 +6°C° 0 mm 2 mps 755 mmHg 91%
06:00 +7°C° 0 mm 2 mps 755 mmHg 85%
07:00 +9°C° 0 mm 2 mps 755 mmHg 80%
08:00 +11°C° 0 mm 3 mps 755 mmHg 74%
09:00 +12°C° 0 mm 3 mps 755 mmHg 69%
10:00 +13°C° 0 mm 3 mps 755 mmHg 65%
11:00 +14°C° 0 mm 3 mps 755 mmHg 60%
12:00 +16°C° 0 mm 3 mps 755 mmHg 59%
13:00 +16°C° 0 mm 3 mps 755 mmHg 59%
14:00 +16°C° 0 mm 3 mps 755 mmHg 58%
15:00 +16°C° 0 mm 3 mps 755 mmHg 58%
16:00 +15°C° 0 mm 4 mps 755 mmHg 57%
17:00 +15°C° 0 mm 5 mps 755 mmHg 56%
18:00 +14°C° 0 mm 5 mps 755 mmHg 61%
19:00 +12°C° 0 mm 4 mps 756 mmHg 67%
20:00 +11°C° 0 mm 4 mps 756 mmHg 72%
21:00 +10°C° 0 mm 4 mps 756 mmHg 73%
22:00 +10°C° 0 mm 4 mps 756 mmHg 75%
23:00 +8°C° 0 mm 4 mps 757 mmHg 76%

19 April, Monday

Time Temperature Precipitation Wind Pressure Humidity
00:00 +8°C° 0 mm 4 mps 757 mmHg 78%
01:00 +7°C° 0 mm 4 mps 756 mmHg 80%
02:00 +7°C° 0 mm 4 mps 756 mmHg 81%
03:00 +6°C° 0 mm 4 mps 756 mmHg 82%
04:00 +6°C° 0 mm 4 mps 756 mmHg 84%
05:00 +6°C° 0 mm 4 mps 757 mmHg 85%
06:00 +7°C° 0 mm 5 mps 756 mmHg 79%
07:00 +8°C° 0 mm 6 mps 756 mmHg 73%
08:00 +10°C° 0 mm 7 mps 756 mmHg 67%
09:00 +11°C° 0 mm 7 mps 756 mmHg 61%
10:00 +12°C° 0 mm 8 mps 756 mmHg 56%
11:00 +15°C° 0 mm 8 mps 755 mmHg 50%
12:00 +15°C° 0 mm 8 mps 755 mmHg 48%
13:00 +16°C° 0 mm 8 mps 754 mmHg 46%
14:00 +17°C° 0 mm 8 mps 754 mmHg 43%
15:00 +16°C° 0 mm 8 mps 754 mmHg 45%
16:00 +16°C° 0 mm 8 mps 753 mmHg 48%
17:00 +16°C° 0 mm 8 mps 753 mmHg 50%
18:00 +15°C° 0 mm 9 mps 753 mmHg 50%
19:00 +13°C° 0 mm 9 mps 752 mmHg 51%
20:00 +12°C° 0 mm 9 mps 752 mmHg 52%
21:00 +11°C° 0.2 mm 9 mps 752 mmHg 57%
22:00 +9°C° 0.2 mm 10 mps 751 mmHg 61%
23:00 +9°C° 0.2 mm 10 mps 751 mmHg 66%

20 April, Tuesday

Time Temperature Precipitation Wind Pressure Humidity
00:00 +8°C° 0.4 mm 10 mps 751 mmHg 66%
01:00 +7°C° 0.4 mm 11 mps 750 mmHg 66%
02:00 +7°C° 0.4 mm 11 mps 749 mmHg 66%
03:00 +6°C° 0.8 mm 11 mps 748 mmHg 68%
04:00 +6°C° 0.8 mm 11 mps 748 mmHg 70%
05:00 +4°C° 0.8 mm 11 mps 747 mmHg 72%
06:00 +6°C° 0.5 mm 11 mps 747 mmHg 73%
07:00 +6°C° 0.5 mm 11 mps 746 mmHg 74%
08:00 +6°C° 0.5 mm 11 mps 746 mmHg 75%
09:00 +6°C° 4.3 mm 11 mps 746 mmHg 80%
10:00 +6°C° 4.3 mm 10 mps 746 mmHg 85%
11:00 +5°C° 4.3 mm 10 mps 746 mmHg 90%
12:00 +6°C° 0.2 mm 10 mps 745 mmHg 88%
13:00 +6°C° 0.2 mm 10 mps 745 mmHg 86%
14:00 +7°C° 0.2 mm 10 mps 745 mmHg 85%
15:00 +7°C° 0.1 mm 10 mps 744 mmHg 85%
16:00 +8°C° 0.1 mm 11 mps 744 mmHg 85%
17:00 +8°C° 0.1 mm 11 mps 743 mmHg 85%
18:00 +8°C° 1 mm 9 mps 744 mmHg 84%
19:00 +9°C° 1 mm 7 mps 745 mmHg 83%
20:00 +9°C° 1 mm 5 mps 745 mmHg 82%
21:00 +9°C° 0 mm 5 mps 746 mmHg 83%
22:00 +8°C° 0 mm 6 mps 746 mmHg 84%
23:00 +8°C° 0 mm 6 mps 747 mmHg 85%
Show more